Starlink 31592

operational
NORAD ID: 59467 Int'l Des: 2024-068 Owner: SPXS Country: US Constellation: starlink
LEOCIRCULAR

About Starlink 31592

Description loading...

Live Position

Loading 3D Globe...

Upcoming Passes

Altitude History

Altitude vs Time

uPlot chart will show altitude changes over time

Two-Line Element Set

1 59467U 24068N 25350.74024093 .00001744 00000-0 72905-4 0 9998
2 59467 43.0028 143.2371 0001096 286.5606 73.5126 15.27577207 95832
Epoch: Dec 16, 2025 • Age: 13 hours

Current Status

Altitude 483.9 km
Velocity 7.63 km/s
Sub-Earth Point 27.67°N, 96.22°E
Launch Date Apr 10, 2024
Age 1.6 years
Type internet

Technical Details

Classification Payload
Mass 730.00 kg
Dry Mass 700.00 kg
Total Mass 730.00 kg
Length 0.30 m
Diameter 4.10 m
Span 29.00 m
Shape Box + pan
Manufacturer SPXS
Bus Type Starlink V2M
Phase Status In Orbit
Owner/State SPXS/US

Large Constellations

Loading constellations...